CAPE
0 0 0 0 0 0 0 0 0 0 0 0 0 0 0 0 0 0 0 0 0 0 23 27 4 24 125 214 277 373 383 237 155 10 0 334 1150 1098 1436 1437 1584 1360 1180 1462 1781 1845 2028 2129 2269 2427 2445 2402 2195 2034 2113 2253 2184 2226 2146 1932 1729 1641 1697 2107 2042 2068 2091 2023 2003 1947 1932 1974 1858 1762 1687 1691 1580 1429 1181 909 854 846 716 1002 1058 1230 1172 984 821 780 804 665 474 402 482 546 664
0 0 0 0 0 0 0 0 0 0 0 0 0 0 0 0 0 0 0 0 0 0 42 96 130 164 244 363 399 340 550 568 356 469 614 919 1191 1578 1476 1482 1219 1022 1103 1263 1482 1734 1936 2038 2082 2072 2329 2410 2330 2057 2107 2252 2124 2207 2239 2047 1799 1730 1778 2176 2191 2146 2200 2161 2058 2049 2020 1845 1762 1940 2093 1957 1840 1598 1444 1458 766 879 885 996 1090 1193 1179 1103 949 866 802 716 589 434 418 466 531
0 0 0 0 0 0 0 0 0 0 0 0 0 0 0 0 0 0 0 0 0 0 0 38 49 38 98 166 238 193 400 815 745 889 920 1164 1301 1304 1545 1310 1166 1146 1204 1234 1463 1631 1775 1984 2007 2006 1985 2116 2303 2203 2042 2228 2148 2253 2326 2198 1981 1892 1943 2142 2243 2236 2306 2224 2178 2150 2066 1779 1669 1698 1977 2003 1740 1670 1704 1411 1157 969 803 882 1025 1075 1071 935 1083 830 713 769 670 539 486 488 592
0 0 0 0 0 0 0 0 0 0 0 0 0 0 0 0 0 0 0 0 0 0 0 0 0 0 78 281 407 521 616 791 889 928 1013 1128 1419 1492 1687 1510 1510 1328 1263 1278 1428 1510 1659 1871 1969 1990 2031 1969 1911 1892 2012 2140 2299 2291 2295 2254 2152 2097 2060 2062 2329 2202 2297 2304 2221 2105 2041 1896 1748 1818 1958 2028 1747 1739 1796 1569 1228 1066 1132 855 934 1116 962 852 729 652 711 789 726 586 518 612 666
0 0 0 0 0 0 0 0 0 0 0 0 0 0 0 0 0 0 0 0 0 0 0 0 0 0 0 10 2 360 666 804 838 882 980 1219 1452 1581 1652 1523 1377 1260 1174 1303 1420 1507 1645 1918 1995 2002 2035 2050 2022 2065 2063 2110 2335 2326 2243 2236 2282 2276 2246 2243 2368 2346 2389 2429 2356 2255 2181 2019 1838 1912 1868 1833 1712 1682 1704 1670 1680 1350 1294 1468 1445 1434 1174 1093 835 743 608 811 739 659 547 577 634
0 0 0 0 0 0 0 0 0 0 0 0 0 0 0 0 0 0 0 0 0 0 0 0 0 13 34 8 107 533 652 798 959 1109 1211 1443 1559 1677 1623 1556 1275 1232 1382 1401 1396 1469 1650 1932 1985 2094 2149 2184 2144 2140 2197 2287 2223 2124 2082 2087 2201 2364 2437 2452 2439 2499 2389 2415 2285 2230 2236 2070 2005 1970 1951 1865 1867 2044 1872 1856 1826 1882 1902 1834 1798 1671 1312 1154 1004 804 874 950 885 877 718 619 614
0 0 0 0 0 0 0 0 0 0 0 0 0 0 0 0 0 0 0 0 0 0 0 0 0 12 55 65 155 339 599 855 1118 1179 1274 1532 1668 1685 1535 1368 1397 1464 1471 1359 1353 1473 1614 1881 2054 2170 2250 2251 2229 2236 2284 2300 2065 2021 1922 1998 2049 2088 2329 2408 2429 2374 2212 2390 2305 2322 2157 1909 1841 2139 2048 2024 2180 2184 1987 1845 1924 1894 1961 2067 2111 1623 1611 1365 1234 834 940 1091 1043 1005 963 796 750
0 0 0 0 0 0 0 0 0 0 0 0 0 0 0 0 0 0 0 0 0 0 0 0 2 37 42 54 113 286 572 846 1121 1175 1405 1671 1730 1622 1449 1459 1484 1478 1349 1299 1397 1478 1412 1888 2076 2176 2209 2264 2289 2230 2229 2244 1974 2020 1922 1900 1876 2119 1518 1672 1912 2308 2334 2427 2375 2270 2237 2101 2045 2066 2089 2093 2218 2160 2021 1946 2102 2224 2251 2108 1932 1556 1716 1506 1148 813 1026 1334 1226 1089 944 917 776
0 0 0 0 0 0 0 0 0 0 0 0 0 0 0 0 0 0 0 0 0 0 0 3 6 30 21 46 288 488 784 1062 1209 1473 1456 1518 1590 1516 1524 1511 1419 1382 1304 1369 1463 1605 1780 1916 1919 2006 2161 2170 2195 2177 2100 2122 2028 1897 1886 2005 1966 1548 1292 1490 1935 1786 2144 2193 2000 1950 2302 2218 2189 2207 2162 2213 2224 2208 2272 2244 2211 2244 2118 1935 1649 1338 1472 1309 1180 1075 1186 1323 1181 1050 962 889 868
0 0 0 0 0 0 0 0 0 0 0 0 0 0 0 0 0 0 0 0 0 0 0 0 4 27 26 169 344 596 848 1171 1462 1698 1732 1705 1641 1606 1584 1510 1458 1426 1378 1347 1434 1601 1737 1875 1774 1776 1847 1924 1927 1961 1951 1961 1949 1831 1804 1822 1617 1219 1262 1367 1758 1772 2262 2213 2230 2273 2366 2348 2221 2240 2269 2241 2224 2359 2363 2222 2150 2087 1863 1331 856 1089 1270 1330 1165 924 926 1136 1112 1012 1040 875 804
0 0 0 0 0 0 0 0 0 0 0 0 0 0 0 0 0 0 0 0 0 0 0 13 26 9 13 6 319 563 919 1316 1549 1688 1766 1732 1684 1624 1579 1568 1515 1417 1318 1306 1376 1445 1597 1643 1632 1477 1586 1635 1670 1748 1804 1823 1758 1646 1606 1646 1686 1805 1445 1224 1970 2145 2244 2343 2368 2307 2249 2207 2261 2273 2349 2209 1892 2418 2257 2182 2074 1866 1568 1220 1169 1361 1239 1330 1072 871 822 955 1122 1010 938 819 710
0 0 0 0 0 0 0 0 0 0 0 0 0 0 0 0 0 0 0 0 0 0 0 0 0 0 3 126 331 601 899 1241 1382 1494 1658 1748 1750 1669 1594 1522 1506 1446 1320 1307 1301 1322 1312 1313 1312 1365 1413 1428 1496 1636 1732 1731 1700 1602 1601 1637 1712 1806 1791 1910 2018 2219 2262 2250 2256 2142 2140 2182 2212 2164 2193 2193 2193 2390 2193 1933 1671 1500 1301 1579 1535 1406 1313 1210 981 862 964 1001 1041 934 856 728 615
0 0 0 0 0 0 0 0 0 0 0 0 0 0 0 0 0 0 0 0 0 0 0 0 0 1 11 87 303 608 829 983 1186 1307 1550 1712 1767 1702 1612 1547 1455 1418 1370 1320 1245 1213 1091 1041 1044 1127 1179 1296 1296 1498 1642 1735 1677 1603 1549 1617 1694 1752 2012 2049 2146 2204 2199 2226 2150 2138 2142 2124 2096 2112 2068 2108 2326 2152 1881 1697 1644 1539 1702 1411 1473 1263 1280 1217 968 913 1028 1058 982 911 783 827 666
0 0 0 0 0 0 0 0 0 0 0 0 0 0 0 0 0 0 0 0 0 0 0 7 1 2 6 133 313 537 754 955 1103 1224 1335 1504 1654 1710 1643 1578 1489 1425 1398 1293 1212 1151 996 877 900 890 855 911 1102 1322 1572 1740 1752 1717 1756 1816 1833 1807 2027 2081 2144 2060 2128 2170 2173 2133 2151 2178 2129 2130 2086 2085 2142 2054 1932 1800 1704 1692 1760 1711 1374 1110 1026 1061 939 1042 984 1095 973 844 774 759 611
0 0 0 0 0 0 0 0 0 0 0 0 0 0 0 0 0 0 0 0 0 0 0 0 0 10 10 63 238 488 657 862 992 1074 1171 1296 1508 1604 1602 1561 1465 1372 1326 1232 1138 1046 855 665 598 630 718 785 884 1047 1359 1707 1795 1736 1787 1905 1968 1918 2028 2150 2150 2098 2245 2324 2326 2274 2363 2415 2308 2233 2179 2154 1910 1850 1942 1926 1717 1671 1750 1692 1482 1095 918 957 1028 927 929 928 926 878 758 683 482
0 0 0 0 0 0 0 0 0 0 0 0 0 0 0 0 0 0 0 0 0 0 0 0 0 7 7 14 236 459 687 775 906 1021 1131 1289 1453 1534 1523 1478 1374 1299 1223 1192 1101 942 842 534 426 439 506 664 766 931 1170 1565 1876 1835 1841 1936 1971 1796 1798 2037 2216 2260 2320 2488 2488 2265 2313 2482 2459 2228 2095 2147 1922 1815 1758 1651 1794 1753 1717 1620 1356 1223 1075 1051 935 939 847 890 824 759 746 417 476
0 0 0 0 0 0 0 0 0 0 0 0 0 0 0 0 0 0 0 0 0 0 0 0 0 9 6 0 0 516 632 697 898 1004 1171 1232 1202 1248 1234 1182 1178 1124 1134 1137 1095 988 843 639 395 433 409 496 670 955 1193 1422 1669 2001 1974 1931 1906 1938 2010 2103 2039 1959 2349 2457 2474 2186 2236 2139 2015 1963 1699 1941 2039 1644 1609 1754 1784 1707 1714 1625 1458 1351 1206 1020 1009 970 896 829 723 746 550 454 427
0 0 0 0 0 0 0 0 0 0 0 0 0 0 0 0 0 0 0 0 0 0 0 0 0 0 0 0 42 489 468 648 779 878 960 985 1068 1093 1076 987 896 917 988 1030 1008 983 821 709 443 432 625 482 635 908 1220 1447 1618 1813 1867 1982 1948 1853 2009 1936 1805 1730 1947 1956 2276 2076 2169 2033 1952 1857 1883 2152 1708 1734 1952 1878 1840 1736 1553 1486 1460 1340 1213 1076 1074 962 871 832 734 645 630 356 348
0 0 0 0 0 0 0 0 0 0 0 0 0 0 0 0 0 0 0 0 0 0 0 0 0 0 0 0 0 334 371 441 513 659 866 1004 1014 1033 857 895 921 903 938 912 904 844 677 667 763 743 716 693 735 942 1286 1557 1684 1716 1884 2026 2092 2214 2318 2200 1864 2065 1971 1811 1739 2016 2050 1964 1778 1574 1548 1483 1753 1710 1984 2036 1991 1769 1680 1530 1531 1407 1180 1121 1080 968 886 786 699 591 307 55 28
0 0 0 0 0 0 0 0 0 0 0 0 0 0 0 0 0 0 0 0 0 0 0 0 0 0 0 0 0 0 55 0 0 110 620 806 594 758 794 840 884 923 845 818 857 814 802 818 828 836 830 794 812 1057 1281 1662 1744 1770 1803 1985 2186 2297 2235 2488 2316 1905 2016 2160 1754 2010 1516 1882 1703 1366 1722 1584 1792 1812 2040 2062 1955 1782 1681 1618 1529 1196 1136 1110 1004 790 881 758 631 442 18 26 42
0 0 0 0 0 0 0 0 0 0 0 0 0 0 0 0 0 0 0 0 0 0 0 0 0 0 0 0 0 0 0 0 0 0 0 0 0 0 254 212 0 0 315 658 884 899 868 877 884 932 1009 1007 998 1263 1355 1538 1706 1690 1750 1858 2110 2265 2378 2453 2547 1853 1782 1732 1663 1578 1567 1579 1517 1549 1907 1704 1760 1737 1742 1657 1643 1687 1498 1269 999 969 896 910 771 682 668 567 418 335 25 1 31
0 0 0 0 0 0 0 0 0 0 0 0 0 0 0 0 0 0 0 0 0 0 0 0 0 0 0 0 0 0 0 0 0 0 0 0 0 0 0 0 0 0 0 0 782 1012 1014 961 1068 1113 1170 1315 1430 1493 1296 1415 1548 1528 1554 1625 1738 1825 2050 1898 1842 1685 1532 1634 1771 1451 1304 1338 1266 1464 1542 1603 1523 1702 1587 1289 1716 1588 1279 1035 786 619 595 594 454 413 344 381 335 306 177 0 1
0 0 0 0 0 0 0 0 0 0 0 0 0 0 0 0 0 0 0 0 0 0 0 0 0 0 0 0 0 0 0 0 0 0 0 0 0 0 0 0 0 0 0 0 0 0 443 1104 1321 1353 1426 1531 1486 1440 1411 1272 1320 1460 1511 1512 1471 1589 1613 1652 1548 1327 1028 1179 1352 1360 1250 1264 1285 1393 944 1418 1352 1510 1198 1524 1780 1468 1233 953 644 446 401 368 26 69 94 91 95 150 91 0 0
0 0 0 0 0 0 0 0 0 0 0 0 0 0 0 0 0 0 0 0 0 0 0 0 0 0 0 0 0 0 0 0 0 0 0 0 0 0 0 0 0 0 0 0 0 0 0 0 0 0 899 1396 1486 1503 1340 1115 1099 1233 1476 1676 1402 1671 1461 1416 1319 1252 1096 1080 1096 1172 1408 1424 1617 1433 1355 1192 1364 1332 1192 1416 1485 1530 1325 1034 688 389 291 362 155 8 15 20 0 0 0 9 0
0 0 0 0 0 0 0 0 0 0 0 0 0 0 0 0 0 0 0 0 0 0 0 0 0 0 0 0 0 0 0 0 0 0 0 0 0 0 0 0 0 0 0 0 0 0 0 0 0 0 0 1104 1346 1370 1226 1060 1062 1067 1018 1034 1260 1681 1331 1263 1130 1124 1138 1174 1212 1275 1477 1619 1778 1322 1199 1124 951 1393 1066 1420 1217 1162 1292 1140 853 553 323 386 270 86 44 12 0 0 0 0 0
0 0 0 0 0 0 0 0 0 0 0 0 0 0 0 0 0 0 0 0 0 0 0 0 0 0 0 0 0 0 0 0 0 0 0 0 0 0 0 0 0 0 0 0 0 0 0 0 0 0 0 637 835 620 580 613 718 914 1092 1146 1358 1203 1057 1019 917 897 960 1070 1157 1139 1269 1569 1473 1224 1181 1219 1392 1366 1117 1503 1370 835 1115 1079 1028 697 385 252 376 168 26 26 0 0 0 0 0
0 0 0 0 0 0 0 0 0 0 0 0 0 0 0 0 0 0 0 0 0 0 0 0 0 0 0 0 0 0 0 0 0 0 0 0 0 0 0 0 0 0 0 0 0 0 0 0 0 0 36 439 470 553 598 589 534 547 669 1043 1149 1084 970 935 874 892 976 983 1075 1028 1082 1150 1144 1216 1244 1120 1280 1081 1145 1453 1149 933 914 925 798 549 818 476 209 107 0 0 5 8 0 0 0
0 0 0 0 0 0 0 0 0 0 0 0 0 0 0 0 0 0 0 0 0 0 0 0 0 0 0 0 0 0 0 0 0 0 0 0 0 0 0 0 0 0 0 0 0 0 0 0 0 0 0 0 0 0 238 296 0 26 94 434 534 674 990 1041 930 830 791 936 959 920 979 1135 1060 1157 980 942 1176 1051 1022 1242 834 858 828 748 698 734 771 639 566 519 521 436 378 299 140 56 16
0 0 0 0 0 0 0 0 0 0 0 0 0 0 0 0 0 0 0 0 0 0 0 0 0 0 0 0 0 0 0 0 0 0 0 0 0 0 0 0 0 0 0 0 0 0 0 0 0 0 0 0 0 0 0 0 0 0 0 0 461 607 571 564 549 723 816 750 922 876 964 992 1203 1073 1181 1008 1122 1043 941 837 675 777 885 673 575 698 697 638 613 498 450 453 481 434 361 385 271
0 0 0 0 0 0 0 0 0 0 0 0 0 0 0 0 0 0 0 0 0 0 0 0 0 0 0 0 0 0 0 0 0 0 0 0 0 0 0 0 0 0 0 0 0 0 0 0 0 0 0 0 0 0 0 0 0 0 0 0 2 0 255 447 465 448 451 550 926 972 846 1000 1058 1001 1045 1130 926 988 1119 932 912 827 744 907 788 541 495 525 561 633 596 497 622 490 377 303 210
0 0 0 0 0 0 0 0 0 0 0 0 0 0 0 0 0 0 0 0 0 0 0 0 0 0 0 0 0 0 0 0 0 0 0 0 0 0 0 0 0 0 0 0 0 0 0 0 0 0 0 0 0 0 0 0 0 0 0 0 0 0 0 0 0 20 140 426 1017 851 1196 1228 1087 1030 736 1095 1137 1018 1097 1099 1087 1212 1072 918 786 606 524 494 501 448 354 317 418 514 435 437 330
0 0 0 0 0 0 0 0 0 0 0 0 0 0 0 0 0 0 0 0 0 0 0 0 0 0 0 0 0 0 0 0 0 0 0 0 0 0 0 0 0 0 0 0 0 0 0 0 0 0 0 0 0 0 0 0 0 0 0 0 0 0 0 0 0 0 0 0 568 715 909 1249 1210 1100 1101 1074 828 795 1020 1027 968 1248 1202 856 684 699 647 618 506 472 537 397 342 422 494 461 349
0 0 0 0 0 0 0 0 0 0 0 0 0 0 0 0 0 0 0 0 0 0 0 0 0 0 0 0 0 0 0 0 0 0 0 0 0 0 0 0 0 0 0 0 0 0 0 0 0 0 0 0 0 0 0 0 0 0 0 0 0 0 0 0 0 0 0 0 0 0 1 310 148 870 1313 1219 1091 950 926 902 814 978 961 1178 837 737 721 696 718 655 500 532 477 578 841 724 365
0 0 0 0 0 0 0 0 0 0 0 0 0 0 0 0 0 0 0 0 0 0 0 0 0 0 0 0 0 0 0 0 0 0 0 0 0 0 0 0 0 0 0 0 0 0 0 0 0 0 0 0 0 0 0 0 0 0 0 0 0 0 0 0 0 0 0 0 0 0 0 1 290 897 1034 741 955 1104 1050 937 1010 817 962 1020 838 929 913 868 599 686 859 961 1028 1204 1194 898 519
0 0 0 0 0 0 0 0 0 0 0 0 0 0 0 0 0 0 0 0 0 0 0 0 0 0 0 0 0 0 0 0 0 0 0 0 0 0 0 0 0 0 0 0 0 0 0 0 0 0 0 0 0 0 0 0 0 0 0 0 0 0 0 0 0 0 0 0 0 0 0 0 0 0 235 887 1048 897 792 746 938 876 947 941 807 640 710 668 566 549 794 1102 1389 1096 1297 882 687
0 0 0 0 0 0 0 0 0 0 0 0 0 0 0 0 0 0 0 0 0 0 0 0 0 0 0 0 0 0 0 0 0 0 0 0 0 0 0 0 0 0 0 0 0 0 0 0 0 0 0 0 0 0 0 0 0 0 0 0 0 0 0 0 0 0 0 0 0 0 0 0 0 0 0 0 0 64 202 89 168 511 433 564 584 764 759 622 669 770 959 1066 812 674 1129 976 966
0 0 0 0 0 0 0 0 0 0 0 0 0 0 0 0 0 0 0 0 0 0 0 0 0 0 0 0 0 0 0 0 0 0 0 0 0 0 0 0 0 0 0 0 0 0 0 0 0 0 0 0 0 0 0 0 0 0 0 0 0 0 0 0 0 0 0 0 0 0 0 0 0 0 0 0 0 43 0 118 128 14 332 334 243 354 521 648 816 1007 770 942 817 732 1067 1280 934
0 0 0 0 0 0 0 0 0 0 0 0 0 0 0 0 0 0 0 0 0 0 0 0 0 0 0 0 0 0 0 0 0 0 0 0 0 0 0 0 0 0 0 0 0 0 0 0 0 0 0 0 0 0 0 0 0 0 0 0 0 0 0 0 0 0 0 0 0 0 0 0 0 0 0 0 0 0 0 0 8 86 135 147 189 337 498 765 948 975 728 615 708 902 811 1138 1048
0 0 0 0 0 0 0 0 0 0 0 0 0 0 0 0 0 0 0 0 0 0 0 0 0 0 0 0 0 0 0 0 0 0 0 0 0 0 0 0 0 0 0 0 0 0 0 0 0 0 0 0 0 0 0 0 0 0 0 0 0 0 0 0 0 0 0 0 0 0 0 0 0 0 0 0 0 0 0 0 0 0 0 20 25 246 382 536 634 642 681 440 959 1033 1205 912 965
0 0 0 0 0 0 0 0 0 0 0 0 0 0 0 0 0 0 0 0 0 0 0 0 0 0 0 0 0 0 0 0 0 0 0 0 0 0 0 0 0 0 0 0 0 0 0 0 0 0 0 0 0 0 0 0 0 0 0 0 0 0 0 0 0 0 0 0 0 0 0 0 0 0 0 0 0 0 0 0 0 0 0 0 2 2 40 260 29 345 642 748 500 625 847 478 717
0 0 0 0 0 0 0 0 0 0 0 0 0 0 0 0 0 0 0 0 0 0 0 0 0 0 0 0 0 0 0 0 0 0 0 0 0 0 0 0 0 0 0 0 0 0 0 0 0 0 0 0 0 0 0 0 0 0 0 0 0 0 0 0 0 0 0 0 0 0 0 0 0 0 0 0 0 0 0 0 0 0 0 0 0 0 0 0 11 24 179 617 619 586 710 256 796
0 0 0 0 0 0 0 0 0 0 0 0 0 0 0 0 0 0 0 0 0 0 0 0 0 0 0 0 0 0 0 0 0 0 0 0 0 0 0 0 0 0 0 0 0 0 0 0 0 0 0 0 0 0 0 0 0 0 0 0 0 0 0 0 0 0 0 0 0 0 0 0 0 0 0 0 0 0 0 0 0 0 0 0 0 0 0 0 0 0 4 181 590 700 709 516 565
0 0 0 0 0 0 0 0 0 0 0 0 0 0 0 0 0 0 0 0 0 0 0 0 0 0 0 0 0 0 0 0 0 0 0 0 0 0 0 0 0 0 0 0 0 0 0 0 0 0 0 0 0 0 0 0 0 0 0 0 0 0 0 0 0 0 0 0 0 0 0 0 0 0 0 0 0 0 0 0 0 0 0 0 0 0 0 0 0 0 0 14 143 490 624 742 765
0 0 0 0 0 0 0 0 0 0 0 0 0 0 0 0 0 0 0 0 0 0 0 0 0 0 0 0 0 0 0 0 0 0 0 0 0 0 0 0 0 0 0 0 0 0 0 0 0 0 0 0 0 0 0 0 0 0 0 0 0 0 0 0 0 0 0 0 0 0 0 0 0 0 0 0 0 0 0 0 0 0 0 0 0 0 0 0 0 0 0 0 5 330 667 533 619
0 0 0 0 0 0 0 0 0 0 0 0 0 0 0 0 0 0 0 0 0 0 0 0 0 0 0 0 0 0 0 0 0 0 0 0 0 0 0 0 0 0 0 0 0 0 0 0 0 0 0 0 0 0 0 0 0 0 0 0 0 0 0 0 0 0 0 0 0 0 0 0 0 0 0 0 0 0 0 0 0 0 0 0 0 0 0 0 0 0 0 0 0 0 86 414 465
0 0 0 0 0 0 0 0 0 0 0 0 0 0 0 0 0 0 0 0 0 0 0 0 0 0 0 0 0 0 0 0 0 0 0 0 0 0 0 0 0 0 0 0 0 0 0 0 0 0 0 0 0 0 0 0 0 0 0 0 0 0 0 0 0 0 0 0 0 0 0 0 0 0 0 0 0 0 0 0 0 0 0 0 0 0 0 0 0 0 0 0 0 0 0 18 157
0 0 0 0 0 0 0 0 0 0 0 0 0 0 0 0 0 0 0 0 0 0 0 0 0 0 0 0 0 0 0 0 0 0 0 0 3 4 2 0 0 0 0 0 0 0 0 0 0 0 0 0 0 0 0 0 0 0 0 0 0 0 0 0 0 0 0 0 0 0 0 0 0 0 0 0 0 0 0 0 0 0 0 0 0 0 0 0 0 0 0 0 0 0 0 0 6
0 0 0 0 0 0 0 0 0 0 0 0 0 0 0 0 0 0 0 0 0 0 0 0 0 0 0 0 0 0 0 0 0 0 0 0 0 2 0 4 1 0 0 0 0 0 0 0 0 0 0 0 0 0 0 0 0 0 0 0 0 0 0 0 0 0 0 0 0 0 0 0 0 0 0 0 0 0 0 0 0 0 0 0 0 0 0 0 0 0 0 0 0 0 0 0 0
0 0 0 0 0 0 0 0 0 0 0 0 0 0 0 0 0 0 0 0 0 0 0 0 0 0 0 0 0 0 0 0 0 0 0 0 0 113 118 3 6 6 2 0 0 0 0 0 0 0 0 0 0 0 0 0 0 0 0 0 0 0 0 0 0 0 0 0 0 0 0 0 0 0 0 0 0 0 0 0 0 0 0 0 0 0 0 0 0 0 0 0 0 0 0 0 0
0 0 0 0 0 0 0 0 0 0 0 0 0 0 0 0 0 0 0 0 0 4 2 3 7 5 0 0 0 0 0 0 0 0 0 0 0 0 21 157 36 42 33 8 0 0 0 0 0 0 0 0 0 0 0 0 0 0 0 0 0 0 0 0 0 0 0 0 0 0 0 0 0 0 0 0 0 0 0 0 0 0 0 0 0 0 0 0 0 0 0 0 0 0 0 0 0
0 0 0 0 0 0 0 0 0 0 0 0 0 0 0 0 0 0 0 1 11 10 6 1 0 0 0 0 0 0 0 0 0 0 0 0 0 0 1 5 77 216 86 57 5 0 0 0 0 0 0 0 0 0 0 0 0 0 0 0 0 0 0 0 0 0 0 0 0 0 0 0 0 0 0 0 0 0 0 0 0 0 0 0 0 0 0 0 0 0 0 0 0 0 0 0 0
0 0 0 0 0 0 0 0 0 0 0 0 0 0 0 0 0 23 7 14 5 8 7 0 0 0 0 0 0 6 0 0 0 0 0 0 0 0 9 203 239 274 282 253 108 2 1 0 0 0 0 0 0 0 0 0 0 0 0 0 0 0 0 0 0 0 0 0 0 0 0 0 0 0 0 0 0 0 0 0 0 0 0 0 0 0 0 0 0 0 0 0 0 0 0 0 0
29 0 0 0 0 0 0 0 0 0 0 0 0 0 0 0 0 0 14 16 11 2 1 2 3 3 3 5 25 0 0 0 0 0 0 0 0 1 164 216 255 308 336 327 282 244 136 6 0 0 0 0 0 0 0 0 0 0 0 0 0 0 0 0 0 0 0 0 0 0 0 0 0 0 0 0 0 0 0 0 0 0 0 0 0 0 0 0 0 0 0 0 0 0 0 0 0
0 2 5 0 0 0 0 0 0 0 0 0 0 0 0 0 0 3 11 2 10 1 0 0 0 2 15 6 0 8 0 0 3 0 0 0 172 168 100 174 216 302 377 382 347 295 253 185 5 0 0 0 0 0 0 0 0 0 0 0 0 0 0 0 0 0 0 0 0 0 0 0 0 0 0 0 0 0 0 0 0 0 0 0 0 0 0 0 0 0 0 0 0 0 0 0 0
0 1 2 0 75 29 133 2 0 0 0 0 0 0 0 0 1 7 0 1 12 10 2 0 0 11 16 4 0 0 14 3 0 0 0 2 248 293 302 271 245 266 336 394 373 331 288 275 234 6 4 2 0 0 0 0 0 0 0 0 0 0 0 0 0 0 0 0 0 0 0 0 0 0 0 0 0 0 0 0 0 0 0 0 0 0 0 0 0 0 0 0 0 0 0 0 0
6 4 0 0 0 0 0 0 3 1 2 0 0 0 0 0 0 0 4 8 14 18 5 0 0 0 0 0 0 0 0 0 0 0 0 0 0 109 342 383 324 318 307 370 393 346 321 309 259 109 29 14 0 0 0 0 0 0 0 0 0 0 0 0 0 0 0 0 0 0 0 0 0 0 0 0 0 0 0 0 0 0 0 0 0 0 0 0 0 0 0 0 0 0 0 0 0
35 27 11 2 0 0 0 0 0 12 11 8 0 0 0 0 0 4 6 0 0 0 2 2 0 0 0 0 0 0 0 0 0 0 0 0 0 6 216 306 325 372 344 353 427 434 386 338 303 259 48 34 1 0 0 0 0 0 0 0 0 0 0 0 0 0 0 0 0 0 0 0 0 0 0 0 0 0 0 0 0 0 0 0 0 0 0 0 0 0 0 0 0 0 0 0 0
19 8 10 23 19 30 12 5 0 0 0 0 0 0 0 0 0 23 7 15 10 9 0 0 0 0 0 0 0 22 19 0 0 0 0 0 0 23 325 356 324 358 428 409 462 464 411 370 345 332 91 272 286 271 236 234 0 0 0 0 0 0 0 0 0 0 0 0 0 0 0 0 0 0 0 0 0 0 0 0 0 0 0 0 0 0 0 0 0 0 0 0 0 0 0 0 0
Wind_Speed
nan nan nan nan nan nan nan nan nan nan nan nan nan nan nan nan nan nan nan nan nan nan nan nan nan nan 23 25 35 35 29 26 21 nan nan 22 26 27 28 31 29 27 27 25 25 24 26 28 29 30 32 33 33 31 28 28 26 24 23 23 25 26 27 26 28 29 29 29 31 31 30 28 29 30 29 29 30 29 28 28 28 27 27 27 25 24 24 25 24 24 25 26 25 22 21 21 22
nan nan nan nan nan nan nan nan nan nan nan nan nan nan nan nan nan nan nan nan nan nan nan nan 38 39 35 34 33 37 35 30 26 28 28 28 27 29 30 31 29 28 25 25 25 25 26 27 29 30 31 32 31 29 25 25 25 23 23 23 24 26 25 24 25 27 28 30 32 32 31 29 28 29 29 29 29 29 28 27 27 27 27 26 25 23 23 25 24 23 25 26 25 22 21 21 22
nan nan nan nan nan nan nan nan nan nan nan nan nan nan nan nan nan nan nan nan nan nan nan nan nan nan nan 23 33 31 23 27 35 34 32 32 32 28 30 31 30 28 26 25 26 26 26 28 31 31 31 30 29 28 26 24 24 25 24 24 24 25 25 24 25 25 28 31 33 35 32 29 29 29 29 31 31 29 27 27 26 26 26 26 25 23 23 24 25 23 24 25 25 22 21 21 21
nan nan nan nan nan nan nan nan nan nan nan nan nan nan nan nan nan nan nan nan nan nan nan nan nan nan nan 38 35 40 32 30 29 33 32 30 26 30 30 31 30 28 26 26 27 26 26 31 33 32 30 29 28 26 26 26 24 25 25 25 25 26 26 25 27 25 27 31 35 35 32 29 28 29 29 32 33 31 28 27 26 25 25 25 24 23 22 23 25 24 23 24 24 22 21 21 21
nan nan nan nan nan nan nan nan nan nan nan nan nan nan nan nan nan nan nan nan nan nan nan nan nan nan nan nan nan 29 30 32 32 30 32 31 32 31 32 32 31 29 28 27 27 27 27 34 34 32 30 29 26 25 25 26 25 25 25 25 26 27 28 28 29 28 28 31 32 31 31 29 28 28 29 32 33 31 27 27 27 25 25 25 24 23 23 22 25 23 24 24 23 22 20 21 22
nan nan nan nan nan nan nan nan nan nan nan nan nan nan nan nan nan nan nan nan nan nan nan nan nan nan nan nan 28 31 31 31 30 32 33 32 35 34 35 33 32 30 29 28 28 27 28 34 33 32 30 29 27 27 27 27 27 26 24 23 24 28 30 31 30 31 31 32 31 30 31 31 30 30 29 31 32 30 27 27 28 29 28 28 26 24 24 25 25 24 24 23 22 21 20 20 23
nan nan nan nan nan nan nan nan nan nan nan nan nan nan nan nan nan nan nan nan nan nan nan nan nan nan nan nan 32 28 31 32 30 30 31 36 36 36 36 33 32 31 30 28 28 28 29 33 33 32 31 31 30 29 28 28 29 26 25 23 22 25 29 31 31 32 33 32 32 32 33 33 33 32 29 31 31 29 28 28 29 30 30 29 27 26 26 27 25 27 24 22 21 20 19 20 22
nan nan nan nan nan nan nan nan nan nan nan nan nan nan nan nan nan nan nan nan nan nan nan nan nan nan nan nan 29 24 29 28 33 33 36 36 37 36 35 33 32 31 31 29 27 27 33 33 33 33 32 32 33 32 31 29 28 25 23 21 20 22 27 29 27 29 30 31 33 32 33 33 34 33 29 30 31 30 28 28 29 32 32 30 27 26 26 26 26 26 24 22 19 20 18 19 21
nan nan nan nan nan nan nan nan nan nan nan nan nan nan nan nan nan nan nan nan nan nan nan nan nan nan nan nan 29 26 30 32 34 35 36 37 36 34 31 31 31 30 30 28 29 29 30 34 34 34 34 35 33 34 32 30 27 24 22 19 18 23 22 24 28 27 27 26 28 29 31 31 31 32 29 28 30 30 29 29 31 33 32 30 27 25 25 24 25 25 24 22 19 19 18 18 20
nan nan nan nan nan nan nan nan nan nan nan nan nan nan nan nan nan nan nan nan nan nan nan nan nan nan nan 39 31 26 28 33 35 36 36 36 34 31 31 30 31 31 29 29 30 30 31 37 36 35 35 37 35 33 30 27 25 23 22 20 22 26 28 25 28 28 27 25 25 25 27 27 27 29 28 27 29 31 31 30 31 32 31 30 25 25 25 24 25 26 25 23 19 18 18 17 19
nan nan nan nan nan nan nan nan nan nan nan nan nan nan nan nan nan nan nan nan nan nan nan nan nan nan nan nan 28 25 32 36 37 37 35 34 33 32 30 30 30 29 29 30 29 31 33 33 39 37 35 34 33 31 29 26 25 23 22 21 21 25 33 25 30 30 29 26 25 25 25 25 26 27 26 25 29 32 31 30 30 32 31 29 27 25 26 25 26 27 25 22 20 18 18 18 18
nan nan nan nan nan nan nan nan nan nan nan nan nan nan nan nan nan nan nan nan nan nan nan nan nan nan nan 33 27 28 33 34 36 35 35 34 32 31 30 29 30 29 29 30 32 33 33 33 30 34 35 33 31 30 27 26 24 24 23 23 24 26 29 29 30 30 29 27 25 24 23 24 26 26 24 25 28 29 30 29 28 29 29 30 27 26 26 25 25 26 24 23 21 19 18 18 18
nan nan nan nan nan nan nan nan nan nan nan nan nan nan nan nan nan nan nan nan nan nan nan nan nan nan nan nan 24 29 33 32 33 34 34 32 31 30 29 29 30 30 30 31 33 34 34 32 30 28 30 34 31 27 26 24 23 24 24 25 25 26 28 29 29 29 28 27 24 23 22 23 25 25 24 24 26 28 30 31 28 28 29 29 28 26 26 25 25 25 23 23 21 19 18 19 20
nan nan nan nan nan nan nan nan nan nan nan nan nan nan nan nan nan nan nan nan nan nan nan nan nan nan nan 30 25 26 27 30 33 32 31 31 30 30 29 29 30 31 32 32 33 34 33 30 28 26 26 25 24 25 25 24 24 25 25 25 26 26 27 28 28 27 26 25 22 21 21 21 23 24 24 24 25 28 31 31 29 28 28 29 28 25 25 25 24 25 24 24 21 20 18 19 20
nan nan nan nan nan nan nan nan nan nan nan nan nan nan nan nan nan nan nan nan nan nan nan nan nan nan nan nan 22 24 26 29 31 30 30 29 29 29 30 29 29 30 31 32 33 32 31 29 27 26 25 24 23 21 20 22 26 26 26 26 26 26 26 27 26 25 23 21 20 19 19 20 21 23 23 23 25 27 30 31 29 27 27 28 28 25 24 23 24 25 25 24 22 20 19 19 20
nan nan nan nan nan nan nan nan nan nan nan nan nan nan nan nan nan nan nan nan nan nan nan nan nan nan nan nan 31 28 29 31 29 30 30 30 28 27 28 28 29 30 31 31 31 29 28 27 25 24 23 22 22 21 21 21 24 25 25 25 25 25 24 24 22 21 21 19 18 18 19 19 20 21 22 22 25 25 27 28 29 28 27 27 27 26 24 23 24 25 26 25 23 22 20 19 20
nan nan nan nan nan nan nan nan nan nan nan nan nan nan nan nan nan nan nan nan nan nan nan nan nan nan nan nan nan 32 30 32 32 31 31 30 28 27 28 29 31 30 30 30 29 28 27 26 24 23 21 21 21 21 20 20 21 24 22 23 22 22 23 22 23 19 17 17 17 18 19 18 19 19 20 20 24 23 23 26 28 29 27 26 28 27 25 23 24 27 27 26 25 24 21 18 18
nan nan nan nan nan nan nan nan nan nan nan nan nan nan nan nan nan nan nan nan nan nan nan nan nan nan nan nan nan 34 32 36 34 32 29 30 28 27 27 28 30 29 29 28 26 26 25 23 23 22 21 20 20 20 19 19 19 21 19 19 18 18 19 19 17 16 15 13 16 17 17 19 19 21 19 19 22 23 22 24 27 28 27 27 28 28 25 23 24 26 28 28 27 26 22 20 20
nan nan nan nan nan nan nan nan nan nan nan nan nan nan nan nan nan nan nan nan nan nan nan nan nan nan nan nan nan 37 32 34 35 31 29 30 28 27 26 28 30 30 30 28 26 24 23 23 23 22 20 18 18 18 18 17 18 19 18 17 16 16 15 18 15 16 15 14 14 15 17 18 19 20 20 19 21 22 22 24 27 29 28 28 28 28 26 25 24 27 28 29 28 26 24 nan nan
nan nan nan nan nan nan nan nan nan nan nan nan nan nan nan nan nan nan nan nan nan nan nan nan nan nan nan nan nan nan nan nan nan 31 28 29 29 29 29 30 30 29 27 26 24 22 22 23 23 22 19 17 16 15 16 16 17 18 17 15 15 14 15 15 15 16 15 15 16 17 16 17 18 17 18 19 21 23 23 25 28 29 29 29 28 27 27 26 25 26 28 29 28 27 nan nan nan
nan nan nan nan nan nan nan nan nan nan nan nan nan nan nan nan nan nan nan nan nan nan nan nan nan nan nan nan nan nan nan nan nan nan nan nan nan nan 31 30 nan nan 26 25 23 20 20 23 23 21 19 17 15 14 15 16 17 18 17 15 14 14 13 13 13 14 16 17 17 17 17 16 17 18 19 20 22 24 25 26 26 28 29 29 28 28 28 27 27 28 29 31 30 29 nan nan nan
nan nan nan nan nan nan nan nan nan nan nan nan nan nan nan nan nan nan nan nan nan nan nan nan nan nan nan nan nan nan nan nan nan nan nan nan nan nan nan nan nan nan nan nan 22 19 19 19 21 21 19 17 17 16 16 16 19 19 18 16 16 15 14 14 14 15 16 17 17 18 19 18 17 18 18 20 22 23 26 25 26 29 31 31 29 28 29 29 28 28 29 31 30 29 28 nan nan
nan nan nan nan nan nan nan nan nan nan nan nan nan nan nan nan nan nan nan nan nan nan nan nan nan nan nan nan nan nan nan nan nan nan nan nan nan nan nan nan nan nan nan nan nan nan 20 20 19 20 19 18 18 18 18 19 20 19 19 19 18 16 16 16 16 15 16 16 18 18 19 18 18 19 19 17 21 22 23 25 28 30 32 33 31 30 30 29 nan nan nan nan nan 30 nan nan nan
nan nan nan nan nan nan nan nan nan nan nan nan nan nan nan nan nan nan nan nan nan nan nan nan nan nan nan nan nan nan nan nan nan nan nan nan nan nan nan nan nan nan nan nan nan nan nan nan nan nan 19 19 19 20 20 21 20 21 21 21 19 18 18 18 18 17 16 17 17 18 19 18 18 21 20 17 22 22 24 25 28 30 31 33 35 33 31 30 30 nan nan nan nan nan nan nan nan
nan nan nan nan nan nan nan nan nan nan nan nan nan nan nan nan nan nan nan nan nan nan nan nan nan nan nan nan nan nan nan nan nan nan nan nan nan nan nan nan nan nan nan nan nan nan nan nan nan nan nan 21 21 22 22 21 21 22 22 22 21 21 20 20 20 19 18 17 18 19 21 19 19 21 21 19 19 17 23 26 28 30 30 31 35 35 33 31 30 nan nan nan nan nan nan nan nan
nan nan nan nan nan nan nan nan nan nan nan nan nan nan nan nan nan nan nan nan nan nan nan nan nan nan nan nan nan nan nan nan nan nan nan nan nan nan nan nan nan nan nan nan nan nan nan nan nan nan nan 23 23 24 24 24 22 24 22 22 22 23 22 21 21 21 19 19 20 19 20 21 20 21 20 21 20 17 20 24 27 29 30 31 31 35 35 33 31 32 nan nan nan nan nan nan nan
nan nan nan nan nan nan nan nan nan nan nan nan nan nan nan nan nan nan nan nan nan nan nan nan nan nan nan nan nan nan nan nan nan nan nan nan nan nan nan nan nan nan nan nan nan nan nan nan nan nan nan 25 24 25 24 25 24 24 23 22 22 24 23 23 23 23 20 19 19 19 20 21 22 20 19 20 22 17 18 17 22 27 28 30 32 35 39 38 35 34 nan nan nan nan nan nan nan
nan nan nan nan nan nan nan nan nan nan nan nan nan nan nan nan nan nan nan nan nan nan nan nan nan nan nan nan nan nan nan nan nan nan nan nan nan nan nan nan nan nan nan nan nan nan nan nan nan nan nan nan nan nan 25 25 nan nan nan 24 23 22 23 23 24 24 23 20 20 21 21 20 23 21 20 20 14 15 16 16 20 22 25 27 31 34 36 39 40 39 39 36 33 32 31 nan nan
nan nan nan nan nan nan nan nan nan nan nan nan nan nan nan nan nan nan nan nan nan nan nan nan nan nan nan nan nan nan nan nan nan nan nan nan nan nan nan nan nan nan nan nan nan nan nan nan nan nan nan nan nan nan nan nan nan nan nan nan 23 23 23 23 25 24 24 22 22 22 21 21 22 23 21 19 17 16 17 17 18 18 22 24 26 29 31 37 42 41 39 37 35 35 32 30 30
nan nan nan nan nan nan nan nan nan nan nan nan nan nan nan nan nan nan nan nan nan nan nan nan nan nan nan nan nan nan nan nan nan nan nan nan nan nan nan nan nan nan nan nan nan nan nan nan nan nan nan nan nan nan nan nan nan nan nan nan nan nan 25 25 25 25 25 23 24 23 22 22 24 23 20 20 17 19 18 17 18 19 21 21 23 26 25 29 37 40 39 38 35 36 36 31 31
nan nan nan nan nan nan nan nan nan nan nan nan nan nan nan nan nan nan nan nan nan nan nan nan nan nan nan nan nan nan nan nan nan nan nan nan nan nan nan nan nan nan nan nan nan nan nan nan nan nan nan nan nan nan nan nan nan nan nan nan nan nan nan nan nan nan 27 26 24 23 24 23 23 23 21 21 20 18 18 16 18 20 20 21 19 20 21 23 30 36 35 34 35 35 30 28 30
nan nan nan nan nan nan nan nan nan nan nan nan nan nan nan nan nan nan nan nan nan nan nan nan nan nan nan nan nan nan nan nan nan nan nan nan nan nan nan nan nan nan nan nan nan nan nan nan nan nan nan nan nan nan nan nan nan nan nan nan nan nan nan nan nan nan nan nan 27 26 25 22 23 22 23 23 21 19 16 12 15 20 20 21 21 22 25 23 24 28 30 34 36 36 32 32 31
nan nan nan nan nan nan nan nan nan nan nan nan nan nan nan nan nan nan nan nan nan nan nan nan nan nan nan nan nan nan nan nan nan nan nan nan nan nan nan nan nan nan nan nan nan nan nan nan nan nan nan nan nan nan nan nan nan nan nan nan nan nan nan nan nan nan nan nan nan nan nan 27 25 24 23 24 21 19 18 16 21 20 21 21 22 21 22 22 23 24 27 33 39 38 35 34 34
nan nan nan nan nan nan nan nan nan nan nan nan nan nan nan nan nan nan nan nan nan nan nan nan nan nan nan nan nan nan nan nan nan nan nan nan nan nan nan nan nan nan nan nan nan nan nan nan nan nan nan nan nan nan nan nan nan nan nan nan nan nan nan nan nan nan nan nan nan nan nan nan 28 26 24 23 21 22 21 20 18 18 18 20 20 22 21 21 22 20 23 31 37 36 34 35 36
nan nan nan nan nan nan nan nan nan nan nan nan nan nan nan nan nan nan nan nan nan nan nan nan nan nan nan nan nan nan nan nan nan nan nan nan nan nan nan nan nan nan nan nan nan nan nan nan nan nan nan nan nan nan nan nan nan nan nan nan nan nan nan nan nan nan nan nan nan nan nan nan nan nan 27 26 24 24 23 22 21 20 23 23 20 19 18 18 17 16 16 25 34 33 32 35 37
nan nan nan nan nan nan nan nan nan nan nan nan nan nan nan nan nan nan nan nan nan nan nan nan nan nan nan nan nan nan nan nan nan nan nan nan nan nan nan nan nan nan nan nan nan nan nan nan nan nan nan nan nan nan nan nan nan nan nan nan nan nan nan nan nan nan nan nan nan nan nan nan nan nan nan nan nan nan 24 nan 20 22 24 25 20 17 19 17 14 10 10 19 23 23 28 29 36
nan nan nan nan nan nan nan nan nan nan nan nan nan nan nan nan nan nan nan nan nan nan nan nan nan nan nan nan nan nan nan nan nan nan nan nan nan nan nan nan nan nan nan nan nan nan nan nan nan nan nan nan nan nan nan nan nan nan nan nan nan nan nan nan nan nan nan nan nan nan nan nan nan nan nan nan nan nan nan 22 21 nan 24 25 22 18 16 15 13 11 12 21 24 17 19 23 32
nan nan nan nan nan nan nan nan nan nan nan nan nan nan nan nan nan nan nan nan nan nan nan nan nan nan nan nan nan nan nan nan nan nan nan nan nan nan nan nan nan nan nan nan nan nan nan nan nan nan nan nan nan nan nan nan nan nan nan nan nan nan nan nan nan nan nan nan nan nan nan nan nan nan nan nan nan nan nan nan nan nan 25 24 22 20 18 17 17 16 16 19 21 19 20 22 26
nan nan nan nan nan nan nan nan nan nan nan nan nan nan nan nan nan nan nan nan nan nan nan nan nan nan nan nan nan nan nan nan nan nan nan nan nan nan nan nan nan nan nan nan nan nan nan nan nan nan nan nan nan nan nan nan nan nan nan nan nan nan nan nan nan nan nan nan nan nan nan nan nan nan nan nan nan nan nan nan nan nan nan nan nan 24 23 20 20 20 19 19 22 21 22 24 24
nan nan nan nan nan nan nan nan nan nan nan nan nan nan nan nan nan nan nan nan nan nan nan nan nan nan nan nan nan nan nan nan nan nan nan nan nan nan nan nan nan nan nan nan nan nan nan nan nan nan nan nan nan nan nan nan nan nan nan nan nan nan nan nan nan nan nan nan nan nan nan nan nan nan nan nan nan nan nan nan nan nan nan nan nan nan nan 23 nan 23 24 22 23 21 25 25 27
nan nan nan nan nan nan nan nan nan nan nan nan nan nan nan nan nan nan nan nan nan nan nan nan nan nan nan nan nan nan nan nan nan nan nan nan nan nan nan nan nan nan nan nan nan nan nan nan nan nan nan nan nan nan nan nan nan nan nan nan nan nan nan nan nan nan nan nan nan nan nan nan nan nan nan nan nan nan nan nan nan nan nan nan nan nan nan nan nan nan 25 25 24 24 24 27 24
nan nan nan nan nan nan nan nan nan nan nan nan nan nan nan nan nan nan nan nan nan nan nan nan nan nan nan nan nan nan nan nan nan nan nan nan nan nan nan nan nan nan nan nan nan nan nan nan nan nan nan nan nan nan nan nan nan nan nan nan nan nan nan nan nan nan nan nan nan nan nan nan nan nan nan nan nan nan nan nan nan nan nan nan nan nan nan nan nan nan nan 25 25 26 26 27 29
nan nan nan nan nan nan nan nan nan nan nan nan nan nan nan nan nan nan nan nan nan nan nan nan nan nan nan nan nan nan nan nan nan nan nan nan nan nan nan nan nan nan nan nan nan nan nan nan nan nan nan nan nan nan nan nan nan nan nan nan nan nan nan nan nan nan nan nan nan nan nan nan nan nan nan nan nan nan nan nan nan nan nan nan nan nan nan nan nan nan nan nan 26 27 29 28 29
nan nan nan nan nan nan nan nan nan nan nan nan nan nan nan nan nan nan nan nan nan nan nan nan nan nan nan nan nan nan nan nan nan nan nan nan nan nan nan nan nan nan nan nan nan nan nan nan nan nan nan nan nan nan nan nan nan nan nan nan nan nan nan nan nan nan nan nan nan nan nan nan nan nan nan nan nan nan nan nan nan nan nan nan nan nan nan nan nan nan nan nan nan 28 27 28 28
nan nan nan nan nan nan nan nan nan nan nan nan nan nan nan nan nan nan nan nan nan nan nan nan nan nan nan nan nan nan nan nan nan nan nan nan nan nan nan nan nan nan nan nan nan nan nan nan nan nan nan nan nan nan nan nan nan nan nan nan nan nan nan nan nan nan nan nan nan nan nan nan nan nan nan nan nan nan nan nan nan nan nan nan nan nan nan nan nan nan nan nan nan nan nan 26 27
nan nan nan nan nan nan nan nan nan nan nan nan nan nan nan nan nan nan nan nan nan nan nan nan nan nan nan nan nan nan nan nan nan nan nan nan nan nan nan nan nan nan nan nan nan nan nan nan nan nan nan nan nan nan nan nan nan nan nan nan nan nan nan nan nan nan nan nan nan nan nan nan nan nan nan nan nan nan nan nan nan nan nan nan nan nan nan nan nan nan nan nan nan nan nan nan 26
nan nan nan nan nan nan nan nan nan nan nan nan nan nan nan nan nan nan nan nan nan nan nan nan nan nan nan nan nan nan nan nan nan nan nan nan nan nan nan nan nan nan nan nan nan nan nan nan nan nan nan nan nan nan nan nan nan nan nan nan nan nan nan nan nan nan nan nan nan nan nan nan nan nan nan nan nan nan nan nan nan nan nan nan nan nan nan nan nan nan nan nan nan nan nan nan nan
nan nan nan nan nan nan nan nan nan nan nan nan nan nan nan nan nan nan nan nan nan nan nan nan nan nan nan nan nan nan nan nan nan nan nan nan nan nan nan nan nan nan nan nan nan nan nan nan nan nan nan nan nan nan nan nan nan nan nan nan nan nan nan nan nan nan nan nan nan nan nan nan nan nan nan nan nan nan nan nan nan nan nan nan nan nan nan nan nan nan nan nan nan nan nan nan nan
nan nan nan nan nan nan nan nan nan nan nan nan nan nan nan nan nan nan nan nan nan nan nan nan nan nan nan nan nan nan nan nan nan nan nan nan nan 29 27 nan nan nan nan nan nan nan nan nan nan nan nan nan nan nan nan nan nan nan nan nan nan nan nan nan nan nan nan nan nan nan nan nan nan nan nan nan nan nan nan nan nan nan nan nan nan nan nan nan nan nan nan nan nan nan nan nan nan
nan nan nan nan nan nan nan nan nan nan nan nan nan nan nan nan nan nan nan nan nan nan nan nan nan nan nan nan nan nan nan nan nan nan nan nan nan nan nan 26 nan nan nan nan nan nan nan nan nan nan nan nan nan nan nan nan nan nan nan nan nan nan nan nan nan nan nan nan nan nan nan nan nan nan nan nan nan nan nan nan nan nan nan nan nan nan nan nan nan nan nan nan nan nan nan nan nan
nan nan nan nan nan nan nan nan nan nan nan nan nan nan nan nan nan nan nan nan nan nan nan nan nan nan nan nan nan nan nan nan nan nan nan nan nan nan nan nan nan 21 nan nan nan nan nan nan nan nan nan nan nan nan nan nan nan nan nan nan nan nan nan nan nan nan nan nan nan nan nan nan nan nan nan nan nan nan nan nan nan nan nan nan nan nan nan nan nan nan nan nan nan nan nan nan nan
nan nan nan nan nan nan nan nan nan nan nan nan nan nan nan nan nan nan nan nan nan nan nan nan nan nan nan nan nan nan nan nan nan nan nan nan nan nan nan 22 20 19 19 19 20 nan nan nan nan nan nan nan nan nan nan nan nan nan nan nan nan nan nan nan nan nan nan nan nan nan nan nan nan nan nan nan nan nan nan nan nan nan nan nan nan nan nan nan nan nan nan nan nan nan nan nan nan
nan nan nan nan nan nan nan nan nan nan nan nan nan nan nan nan nan nan nan nan nan nan nan nan nan nan nan nan nan nan nan nan nan nan nan nan nan nan 22 22 19 19 20 19 19 20 20 nan nan nan nan nan nan nan nan nan nan nan nan nan nan nan nan nan nan nan nan nan nan nan nan nan nan nan nan nan nan nan nan nan nan nan nan nan nan nan nan nan nan nan nan nan nan nan nan nan nan
nan nan nan nan nan nan nan nan nan nan nan nan nan nan nan nan nan nan nan nan nan nan nan nan nan nan nan nan nan nan nan nan nan nan nan nan 28 29 25 21 22 25 24 20 19 19 19 20 nan nan nan nan nan nan nan nan nan nan nan nan nan nan nan nan nan nan nan nan nan nan nan nan nan nan nan nan nan nan nan nan nan nan nan nan nan nan nan nan nan nan nan nan nan nan nan nan nan
nan nan nan nan nan nan 25 nan nan nan nan nan nan nan nan nan nan nan nan nan nan nan nan nan nan nan nan nan nan nan nan nan nan nan nan nan 19 21 25 25 26 26 23 20 21 22 21 22 23 nan nan nan nan nan nan nan nan nan nan nan nan nan nan nan nan nan nan nan nan nan nan nan nan nan nan nan nan nan nan nan nan nan nan nan nan nan nan nan nan nan nan nan nan nan nan nan nan
nan nan nan nan nan nan nan nan nan nan nan nan nan nan nan nan nan nan nan nan nan nan nan nan nan nan nan nan nan nan nan nan nan nan nan nan nan 19 19 24 29 25 18 16 21 23 24 26 27 25 nan nan nan nan nan nan nan nan nan nan nan nan nan nan nan nan nan nan nan nan nan nan nan nan nan nan nan nan nan nan nan nan nan nan nan nan nan nan nan nan nan nan nan nan nan nan nan
nan nan nan nan nan nan nan nan nan nan nan nan nan nan nan nan nan nan nan nan nan nan nan nan nan nan nan nan nan nan nan nan nan nan nan nan nan nan 25 25 24 22 22 26 28 28 27 27 25 26 nan nan nan nan nan nan nan nan nan nan nan nan nan nan nan nan nan nan nan nan nan nan nan nan nan nan nan nan nan nan nan nan nan nan nan nan nan nan nan nan nan nan nan nan nan nan nan
nan nan nan nan nan nan nan nan nan nan nan nan nan nan nan nan nan nan nan nan nan nan nan nan nan nan nan nan nan nan nan nan nan nan nan nan nan nan 27 28 29 29 30 32 31 29 29 30 27 25 nan 24 23 24 27 29 nan nan nan nan nan nan nan nan nan nan nan nan nan nan nan nan nan nan nan nan nan nan nan nan nan nan nan nan nan nan nan nan nan nan nan nan nan nan nan nan nan
Wind_Direction
nan nan nan nan nan nan nan nan nan nan nan nan nan nan nan nan nan nan nan nan nan nan nan nan nan nan 262 276 278 272 260 277 281 nan nan 280 282 290 288 290 293 293 293 292 289 289 291 292 294 295 299 303 305 308 309 309 308 305 304 303 301 299 299 296 297 297 295 292 287 284 282 277 274 273 267 264 268 270 274 277 276 274 272 272 270 266 265 260 253 251 254 257 259 260 260 258 253
nan nan nan nan nan nan nan nan nan nan nan nan nan nan nan nan nan nan nan nan nan nan nan nan 261 263 269 276 275 265 254 255 268 274 273 277 277 284 291 292 295 293 291 288 286 286 286 288 288 289 294 300 303 306 308 308 307 304 304 304 302 301 300 294 293 295 294 292 291 287 284 281 278 272 261 258 260 265 268 270 270 270 269 270 267 265 263 261 255 251 254 257 260 260 259 257 250
nan nan nan nan nan nan nan nan nan nan nan nan nan nan nan nan nan nan nan nan nan nan nan nan nan nan nan 257 242 253 264 264 268 269 274 283 285 290 291 291 289 288 286 283 284 283 283 286 287 288 291 297 302 305 307 305 304 302 301 302 303 302 300 295 288 286 288 291 291 288 286 285 284 277 261 255 255 256 262 266 268 268 269 269 267 263 260 259 256 252 252 257 259 258 258 255 246
nan nan nan nan nan nan nan nan nan nan nan nan nan nan nan nan nan nan nan nan nan nan nan nan nan nan nan 252 259 257 263 268 266 275 275 283 281 290 288 287 284 280 278 278 278 278 279 285 285 288 290 292 296 300 303 303 302 302 302 302 304 302 299 295 287 285 286 290 291 288 286 286 288 282 266 256 254 251 254 261 263 266 266 268 266 261 258 256 254 250 252 255 258 257 256 253 244
nan nan nan nan nan nan nan nan nan nan nan nan nan nan nan nan nan nan nan nan nan nan nan nan nan nan nan nan nan 254 264 268 270 264 268 269 277 280 282 280 278 277 276 275 274 275 277 285 284 285 286 288 290 292 295 298 299 298 300 303 305 303 300 297 292 289 286 290 291 287 287 289 289 286 274 261 255 251 249 253 260 265 261 262 257 254 253 250 253 255 253 252 255 256 253 250 242
nan nan nan nan nan nan nan nan nan nan nan nan nan nan nan nan nan nan nan nan nan nan nan nan nan nan nan nan 254 260 272 272 276 268 273 276 280 279 277 275 273 272 271 271 271 270 274 283 282 282 282 283 285 287 289 291 294 292 296 298 300 301 300 297 294 291 288 287 290 289 288 291 290 288 278 265 256 247 249 254 257 260 259 257 254 250 250 249 251 247 247 251 251 253 249 246 240
nan nan nan nan nan nan nan nan nan nan nan nan nan nan nan nan nan nan nan nan nan nan nan nan nan nan nan nan 253 253 259 268 268 273 274 281 280 276 274 272 270 271 270 268 267 269 274 276 276 276 276 278 280 283 285 287 295 293 296 295 302 306 306 302 299 296 292 287 288 288 289 291 291 289 280 267 257 247 250 256 257 258 256 253 249 248 249 251 248 244 241 244 248 249 244 241 239
nan nan nan nan nan nan nan nan nan nan nan nan nan nan nan nan nan nan nan nan nan nan nan nan nan nan nan nan 262 253 264 261 270 273 274 277 278 275 274 273 273 273 269 265 265 268 274 271 271 272 272 273 278 281 287 287 297 293 293 294 303 308 308 303 303 301 296 291 289 289 288 290 289 289 282 268 260 251 248 255 255 257 255 253 250 250 251 250 249 249 245 243 243 248 239 239 240
nan nan nan nan nan nan nan nan nan nan nan nan nan nan nan nan nan nan nan nan nan nan nan nan nan nan nan nan 259 265 263 269 271 272 274 277 276 277 273 274 273 272 269 262 260 261 265 268 267 268 270 272 275 278 284 288 291 292 290 292 299 286 295 300 307 306 303 296 290 289 287 288 287 287 282 267 258 252 248 250 253 254 255 253 251 251 251 249 249 248 245 245 243 247 242 232 233
nan nan nan nan nan nan nan nan nan nan nan nan nan nan nan nan nan nan nan nan nan nan nan nan nan nan nan 267 268 261 266 274 273 270 272 274 275 273 271 270 269 271 265 260 259 261 264 268 264 266 268 271 276 280 282 285 286 285 283 285 291 306 305 307 303 306 302 297 289 286 284 284 286 287 285 272 258 251 247 246 250 252 253 253 250 248 246 245 245 243 243 240 238 242 243 234 229
nan nan nan nan nan nan nan nan nan nan nan nan nan nan nan nan nan nan nan nan nan nan nan nan nan nan nan nan 262 264 270 276 277 276 276 276 275 271 266 264 264 264 266 262 258 257 258 264 268 267 269 273 276 279 282 284 282 279 280 284 287 290 297 311 302 299 297 293 288 285 283 284 284 284 285 276 263 254 247 243 248 250 251 251 246 244 244 243 244 243 242 241 237 234 237 236 231
nan nan nan nan nan nan nan nan nan nan nan nan nan nan nan nan nan nan nan nan nan nan nan nan nan nan nan 273 273 274 271 274 276 277 278 278 274 270 265 260 261 261 264 261 258 258 258 260 266 272 272 273 274 278 282 284 281 280 281 286 287 290 298 302 300 299 296 293 290 287 284 281 279 277 280 277 266 257 247 241 247 251 253 252 245 242 242 244 243 242 241 240 236 234 235 236 234
nan nan nan nan nan nan nan nan nan nan nan nan nan nan nan nan nan nan nan nan nan nan nan nan nan nan nan nan 273 275 274 275 275 277 277 274 272 268 263 261 262 263 263 261 261 260 262 263 267 273 279 277 277 277 280 280 280 281 285 287 291 294 297 300 301 299 296 292 290 288 285 281 278 272 276 280 271 259 246 239 243 249 252 251 246 240 241 243 242 243 241 242 237 233 233 235 234
nan nan nan nan nan nan nan nan nan nan nan nan nan nan nan nan nan nan nan nan nan nan nan nan nan nan nan 270 270 274 277 278 276 274 273 274 271 269 266 261 261 261 263 264 264 265 266 271 275 276 277 279 279 279 281 281 279 281 286 290 294 298 299 302 302 300 296 293 291 288 286 282 276 270 271 278 272 259 248 242 244 247 248 249 247 243 241 241 239 238 239 240 239 234 231 233 234
nan nan nan nan nan nan nan nan nan nan nan nan nan nan nan nan nan nan nan nan nan nan nan nan nan nan nan nan 271 280 283 284 280 276 273 270 268 264 263 261 259 260 262 265 268 270 274 278 279 281 281 281 281 281 280 284 286 286 290 293 295 299 300 302 303 301 296 294 292 289 284 281 275 269 269 271 268 261 253 246 245 247 246 249 247 244 240 239 236 234 235 236 236 234 231 229 232
nan nan nan nan nan nan nan nan nan nan nan nan nan nan nan nan nan nan nan nan nan nan nan nan nan nan nan nan 294 289 289 283 277 272 268 266 262 259 259 258 258 257 259 263 266 270 275 278 279 280 283 284 284 285 285 286 289 289 290 295 298 297 298 298 299 298 299 294 293 288 283 276 274 270 276 265 264 261 255 243 245 247 246 247 249 244 241 238 234 234 232 232 232 231 230 225 228
nan nan nan nan nan nan nan nan nan nan nan nan nan nan nan nan nan nan nan nan nan nan nan nan nan nan nan nan nan 286 281 276 273 269 262 259 258 257 253 253 255 253 256 260 266 272 276 280 281 283 285 286 286 286 285 285 287 289 289 294 296 296 295 301 301 301 293 294 288 281 275 269 262 262 266 257 262 251 253 250 243 246 246 245 249 247 242 239 234 232 232 231 230 229 227 224 223
nan nan nan nan nan nan nan nan nan nan nan nan nan nan nan nan nan nan nan nan nan nan nan nan nan nan nan nan nan 280 275 273 274 271 265 262 256 256 259 259 260 263 264 265 269 277 281 283 287 286 287 289 287 287 285 284 285 285 285 286 285 285 286 288 289 280 288 281 284 279 271 266 263 259 253 258 248 247 250 252 245 246 246 245 247 248 243 237 236 235 233 229 230 229 225 218 218
nan nan nan nan nan nan nan nan nan nan nan nan nan nan nan nan nan nan nan nan nan nan nan nan nan nan nan nan nan 278 273 270 272 271 269 266 261 261 264 261 259 261 263 268 274 280 284 283 284 288 293 292 290 287 285 284 284 282 285 284 283 286 288 288 279 281 278 283 289 283 274 268 262 259 262 252 240 256 247 255 252 250 244 243 245 247 243 237 235 233 234 231 228 231 222 nan nan
nan nan nan nan nan nan nan nan nan nan nan nan nan nan nan nan nan nan nan nan nan nan nan nan nan nan nan nan nan nan nan nan nan 274 273 268 262 262 258 258 259 262 268 275 278 276 281 284 288 292 297 296 295 293 286 281 281 281 286 284 281 278 280 283 282 280 281 289 282 276 274 272 263 259 268 266 250 236 243 252 259 258 252 245 244 242 247 239 236 233 233 233 227 223 nan nan nan
nan nan nan nan nan nan nan nan nan nan nan nan nan nan nan nan nan nan nan nan nan nan nan nan nan nan nan nan nan nan nan nan nan nan nan nan nan nan 260 263 nan nan 267 266 271 279 281 282 284 284 285 284 286 287 281 283 282 282 282 284 281 278 283 282 278 273 276 279 283 283 280 274 266 254 246 242 236 232 233 236 243 244 240 235 237 230 235 235 231 223 223 224 222 222 nan nan nan
nan nan nan nan nan nan nan nan nan nan nan nan nan nan nan nan nan nan nan nan nan nan nan nan nan nan nan nan nan nan nan nan nan nan nan nan nan nan nan nan nan nan nan nan 268 262 261 268 272 270 270 274 275 277 279 282 281 284 282 282 278 276 281 279 276 280 287 290 288 286 285 280 273 266 253 248 241 234 231 236 240 240 239 236 232 229 231 235 232 227 223 223 221 221 222 nan nan
nan nan nan nan nan nan nan nan nan nan nan nan nan nan nan nan nan nan nan nan nan nan nan nan nan nan nan nan nan nan nan nan nan nan nan nan nan nan nan nan nan nan nan nan nan nan 258 259 262 267 271 268 266 269 267 268 271 274 277 281 282 280 282 284 282 284 290 292 286 285 285 286 283 274 259 245 257 253 238 233 237 240 241 238 232 231 229 231 nan nan nan nan nan 219 nan nan nan
nan nan nan nan nan nan nan nan nan nan nan nan nan nan nan nan nan nan nan nan nan nan nan nan nan nan nan nan nan nan nan nan nan nan nan nan nan nan nan nan nan nan nan nan nan nan nan nan nan nan 266 272 270 269 270 270 272 274 278 279 278 284 280 280 282 286 286 286 286 284 283 285 281 275 274 251 248 248 258 246 239 240 242 240 234 230 230 228 230 nan nan nan nan nan nan nan nan
nan nan nan nan nan nan nan nan nan nan nan nan nan nan nan nan nan nan nan nan nan nan nan nan nan nan nan nan nan nan nan nan nan nan nan nan nan nan nan nan nan nan nan nan nan nan nan nan nan nan nan 271 272 271 270 269 270 272 274 277 279 282 277 278 281 281 280 279 275 277 282 284 277 271 270 265 259 253 256 253 246 244 242 243 237 229 228 229 228 nan nan nan nan nan nan nan nan
nan nan nan nan nan nan nan nan nan nan nan nan nan nan nan nan nan nan nan nan nan nan nan nan nan nan nan nan nan nan nan nan nan nan nan nan nan nan nan nan nan nan nan nan nan nan nan nan nan nan nan 270 272 273 274 272 273 275 275 278 279 279 277 278 278 276 275 276 277 275 275 274 271 271 270 268 269 260 256 254 251 250 246 244 241 232 226 225 226 229 nan nan nan nan nan nan nan
nan nan nan nan nan nan nan nan nan nan nan nan nan nan nan nan nan nan nan nan nan nan nan nan nan nan nan nan nan nan nan nan nan nan nan nan nan nan nan nan nan nan nan nan nan nan nan nan nan nan nan 266 268 273 276 277 276 275 278 277 276 278 278 277 276 277 274 274 275 274 274 276 276 274 271 267 264 268 265 262 254 249 247 245 241 235 227 224 225 228 nan nan nan nan nan nan nan
nan nan nan nan nan nan nan nan nan nan nan nan nan nan nan nan nan nan nan nan nan nan nan nan nan nan nan nan nan nan nan nan nan nan nan nan nan nan nan nan nan nan nan nan nan nan nan nan nan nan nan nan nan nan 274 278 nan nan nan 275 277 278 280 282 281 281 281 277 276 274 275 275 277 273 270 269 275 275 272 265 251 248 247 246 241 237 232 228 225 224 226 229 232 229 223 nan nan
nan nan nan nan nan nan nan nan nan nan nan nan nan nan nan nan nan nan nan nan nan nan nan nan nan nan nan nan nan nan nan nan nan nan nan nan nan nan nan nan nan nan nan nan nan nan nan nan nan nan nan nan nan nan nan nan nan nan nan nan 278 278 279 278 279 277 279 278 275 273 272 273 270 274 276 278 278 270 267 265 261 253 253 250 246 244 240 231 226 223 225 225 228 228 222 224 227
nan nan nan nan nan nan nan nan nan nan nan nan nan nan nan nan nan nan nan nan nan nan nan nan nan nan nan nan nan nan nan nan nan nan nan nan nan nan nan nan nan nan nan nan nan nan nan nan nan nan nan nan nan nan nan nan nan nan nan nan nan nan 280 279 279 278 276 274 276 279 278 275 275 278 275 276 270 261 263 264 259 252 248 249 246 245 245 240 230 225 227 224 222 229 224 218 230
nan nan nan nan nan nan nan nan nan nan nan nan nan nan nan nan nan nan nan nan nan nan nan nan nan nan nan nan nan nan nan nan nan nan nan nan nan nan nan nan nan nan nan nan nan nan nan nan nan nan nan nan nan nan nan nan nan nan nan nan nan nan nan nan nan nan 275 271 270 274 275 276 280 280 278 272 269 267 251 245 250 251 248 241 243 244 244 240 233 227 226 227 227 230 235 227 231
nan nan nan nan nan nan nan nan nan nan nan nan nan nan nan nan nan nan nan nan nan nan nan nan nan nan nan nan nan nan nan nan nan nan nan nan nan nan nan nan nan nan nan nan nan nan nan nan nan nan nan nan nan nan nan nan nan nan nan nan nan nan nan nan nan nan nan nan 266 263 263 267 270 269 269 268 270 266 266 253 248 253 250 242 243 238 234 236 234 231 231 233 231 230 227 229 232
nan nan nan nan nan nan nan nan nan nan nan nan nan nan nan nan nan nan nan nan nan nan nan nan nan nan nan nan nan nan nan nan nan nan nan nan nan nan nan nan nan nan nan nan nan nan nan nan nan nan nan nan nan nan nan nan nan nan nan nan nan nan nan nan nan nan nan nan nan nan nan 256 257 265 268 265 259 268 265 261 244 230 227 242 242 244 239 234 235 240 240 236 237 233 228 225 228
nan nan nan nan nan nan nan nan nan nan nan nan nan nan nan nan nan nan nan nan nan nan nan nan nan nan nan nan nan nan nan nan nan nan nan nan nan nan nan nan nan nan nan nan nan nan nan nan nan nan nan nan nan nan nan nan nan nan nan nan nan nan nan nan nan nan nan nan nan nan nan nan 253 251 251 254 253 255 254 253 254 247 239 238 243 236 232 232 240 248 243 229 232 233 230 230 226
nan nan nan nan nan nan nan nan nan nan nan nan nan nan nan nan nan nan nan nan nan nan nan nan nan nan nan nan nan nan nan nan nan nan nan nan nan nan nan nan nan nan nan nan nan nan nan nan nan nan nan nan nan nan nan nan nan nan nan nan nan nan nan nan nan nan nan nan nan nan nan nan nan nan 249 246 245 245 247 250 250 249 246 242 241 239 240 238 240 259 246 220 225 225 224 227 228
nan nan nan nan nan nan nan nan nan nan nan nan nan nan nan nan nan nan nan nan nan nan nan nan nan nan nan nan nan nan nan nan nan nan nan nan nan nan nan nan nan nan nan nan nan nan nan nan nan nan nan nan nan nan nan nan nan nan nan nan nan nan nan nan nan nan nan nan nan nan nan nan nan nan nan nan nan nan 243 nan 241 246 250 249 249 241 236 237 235 248 245 229 225 215 217 230 231
nan nan nan nan nan nan nan nan nan nan nan nan nan nan nan nan nan nan nan nan nan nan nan nan nan nan nan nan nan nan nan nan nan nan nan nan nan nan nan nan nan nan nan nan nan nan nan nan nan nan nan nan nan nan nan nan nan nan nan nan nan nan nan nan nan nan nan nan nan nan nan nan nan nan nan nan nan nan nan 242 241 nan 244 251 249 245 244 248 242 227 225 233 230 221 222 230 237
nan nan nan nan nan nan nan nan nan nan nan nan nan nan nan nan nan nan nan nan nan nan nan nan nan nan nan nan nan nan nan nan nan nan nan nan nan nan nan nan nan nan nan nan nan nan nan nan nan nan nan nan nan nan nan nan nan nan nan nan nan nan nan nan nan nan nan nan nan nan nan nan nan nan nan nan nan nan nan nan nan nan 238 242 244 243 241 239 242 243 238 224 240 242 234 236 242
nan nan nan nan nan nan nan nan nan nan nan nan nan nan nan nan nan nan nan nan nan nan nan nan nan nan nan nan nan nan nan nan nan nan nan nan nan nan nan nan nan nan nan nan nan nan nan nan nan nan nan nan nan nan nan nan nan nan nan nan nan nan nan nan nan nan nan nan nan nan nan nan nan nan nan nan nan nan nan nan nan nan nan nan nan 235 237 236 240 237 243 242 235 244 245 239 246
nan nan nan nan nan nan nan nan nan nan nan nan nan nan nan nan nan nan nan nan nan nan nan nan nan nan nan nan nan nan nan nan nan nan nan nan nan nan nan nan nan nan nan nan nan nan nan nan nan nan nan nan nan nan nan nan nan nan nan nan nan nan nan nan nan nan nan nan nan nan nan nan nan nan nan nan nan nan nan nan nan nan nan nan nan nan nan 237 nan 237 239 239 245 235 244 241 240
nan nan nan nan nan nan nan nan nan nan nan nan nan nan nan nan nan nan nan nan nan nan nan nan nan nan nan nan nan nan nan nan nan nan nan nan nan nan nan nan nan nan nan nan nan nan nan nan nan nan nan nan nan nan nan nan nan nan nan nan nan nan nan nan nan nan nan nan nan nan nan nan nan nan nan nan nan nan nan nan nan nan nan nan nan nan nan nan nan nan 240 241 245 238 240 248 253
nan nan nan nan nan nan nan nan nan nan nan nan nan nan nan nan nan nan nan nan nan nan nan nan nan nan nan nan nan nan nan nan nan nan nan nan nan nan nan nan nan nan nan nan nan nan nan nan nan nan nan nan nan nan nan nan nan nan nan nan nan nan nan nan nan nan nan nan nan nan nan nan nan nan nan nan nan nan nan nan nan nan nan nan nan nan nan nan nan nan nan 238 237 245 239 239 243
nan nan nan nan nan nan nan nan nan nan nan nan nan nan nan nan nan nan nan nan nan nan nan nan nan nan nan nan nan nan nan nan nan nan nan nan nan nan nan nan nan nan nan nan nan nan nan nan nan nan nan nan nan nan nan nan nan nan nan nan nan nan nan nan nan nan nan nan nan nan nan nan nan nan nan nan nan nan nan nan nan nan nan nan nan nan nan nan nan nan nan nan 239 242 245 239 237
nan nan nan nan nan nan nan nan nan nan nan nan nan nan nan nan nan nan nan nan nan nan nan nan nan nan nan nan nan nan nan nan nan nan nan nan nan nan nan nan nan nan nan nan nan nan nan nan nan nan nan nan nan nan nan nan nan nan nan nan nan nan nan nan nan nan nan nan nan nan nan nan nan nan nan nan nan nan nan nan nan nan nan nan nan nan nan nan nan nan nan nan nan 244 245 245 238
nan nan nan nan nan nan nan nan nan nan nan nan nan nan nan nan nan nan nan nan nan nan nan nan nan nan nan nan nan nan nan nan nan nan nan nan nan nan nan nan nan nan nan nan nan nan nan nan nan nan nan nan nan nan nan nan nan nan nan nan nan nan nan nan nan nan nan nan nan nan nan nan nan nan nan nan nan nan nan nan nan nan nan nan nan nan nan nan nan nan nan nan nan nan nan 250 249
nan nan nan nan nan nan nan nan nan nan nan nan nan nan nan nan nan nan nan nan nan nan nan nan nan nan nan nan nan nan nan nan nan nan nan nan nan nan nan nan nan nan nan nan nan nan nan nan nan nan nan nan nan nan nan nan nan nan nan nan nan nan nan nan nan nan nan nan nan nan nan nan nan nan nan nan nan nan nan nan nan nan nan nan nan nan nan nan nan nan nan nan nan nan nan nan 249
nan nan nan nan nan nan nan nan nan nan nan nan nan nan nan nan nan nan nan nan nan nan nan nan nan nan nan nan nan nan nan nan nan nan nan nan nan nan nan nan nan nan nan nan nan nan nan nan nan nan nan nan nan nan nan nan nan nan nan nan nan nan nan nan nan nan nan nan nan nan nan nan nan nan nan nan nan nan nan nan nan nan nan nan nan nan nan nan nan nan nan nan nan nan nan nan nan
nan nan nan nan nan nan nan nan nan nan nan nan nan nan nan nan nan nan nan nan nan nan nan nan nan nan nan nan nan nan nan nan nan nan nan nan nan nan nan nan nan nan nan nan nan nan nan nan nan nan nan nan nan nan nan nan nan nan nan nan nan nan nan nan nan nan nan nan nan nan nan nan nan nan nan nan nan nan nan nan nan nan nan nan nan nan nan nan nan nan nan nan nan nan nan nan nan
nan nan nan nan nan nan nan nan nan nan nan nan nan nan nan nan nan nan nan nan nan nan nan nan nan nan nan nan nan nan nan nan nan nan nan nan nan 304 308 nan nan nan nan nan nan nan nan nan nan nan nan nan nan nan nan nan nan nan nan nan nan nan nan nan nan nan nan nan nan nan nan nan nan nan nan nan nan nan nan nan nan nan nan nan nan nan nan nan nan nan nan nan nan nan nan nan nan
nan nan nan nan nan nan nan nan nan nan nan nan nan nan nan nan nan nan nan nan nan nan nan nan nan nan nan nan nan nan nan nan nan nan nan nan nan nan nan 307 nan nan nan nan nan nan nan nan nan nan nan nan nan nan nan nan nan nan nan nan nan nan nan nan nan nan nan nan nan nan nan nan nan nan nan nan nan nan nan nan nan nan nan nan nan nan nan nan nan nan nan nan nan nan nan nan nan
nan nan nan nan nan nan nan nan nan nan nan nan nan nan nan nan nan nan nan nan nan nan nan nan nan nan nan nan nan nan nan nan nan nan nan nan nan nan nan nan nan 303 nan nan nan nan nan nan nan nan nan nan nan nan nan nan nan nan nan nan nan nan nan nan nan nan nan nan nan nan nan nan nan nan nan nan nan nan nan nan nan nan nan nan nan nan nan nan nan nan nan nan nan nan nan nan nan
nan nan nan nan nan nan nan nan nan nan nan nan nan nan nan nan nan nan nan nan nan nan nan nan nan nan nan nan nan nan nan nan nan nan nan nan nan nan nan 302 304 304 306 299 296 nan nan nan nan nan nan nan nan nan nan nan nan nan nan nan nan nan nan nan nan nan nan nan nan nan nan nan nan nan nan nan nan nan nan nan nan nan nan nan nan nan nan nan nan nan nan nan nan nan nan nan nan
nan nan nan nan nan nan nan nan nan nan nan nan nan nan nan nan nan nan nan nan nan nan nan nan nan nan nan nan nan nan nan nan nan nan nan nan nan nan 295 297 301 300 297 297 296 298 306 nan nan nan nan nan nan nan nan nan nan nan nan nan nan nan nan nan nan nan nan nan nan nan nan nan nan nan nan nan nan nan nan nan nan nan nan nan nan nan nan nan nan nan nan nan nan nan nan nan nan
nan nan nan nan nan nan nan nan nan nan nan nan nan nan nan nan nan nan nan nan nan nan nan nan nan nan nan nan nan nan nan nan nan nan nan nan 305 308 305 303 305 308 308 306 306 304 308 312 nan nan nan nan nan nan nan nan nan nan nan nan nan nan nan nan nan nan nan nan nan nan nan nan nan nan nan nan nan nan nan nan nan nan nan nan nan nan nan nan nan nan nan nan nan nan nan nan nan
nan nan nan nan nan nan 254 nan nan nan nan nan nan nan nan nan nan nan nan nan nan nan nan nan nan nan nan nan nan nan nan nan nan nan nan nan 274 294 305 311 314 311 311 314 318 316 312 312 313 nan nan nan nan nan nan nan nan nan nan nan nan nan nan nan nan nan nan nan nan nan nan nan nan nan nan nan nan nan nan nan nan nan nan nan nan nan nan nan nan nan nan nan nan nan nan nan nan
nan nan nan nan nan nan nan nan nan nan nan nan nan nan nan nan nan nan nan nan nan nan nan nan nan nan nan nan nan nan nan nan nan nan nan nan nan 281 285 297 305 302 292 298 308 307 315 318 312 310 nan nan nan nan nan nan nan nan nan nan nan nan nan nan nan nan nan nan nan nan nan nan nan nan nan nan nan nan nan nan nan nan nan nan nan nan nan nan nan nan nan nan nan nan nan nan nan
nan nan nan nan nan nan nan nan nan nan nan nan nan nan nan nan nan nan nan nan nan nan nan nan nan nan nan nan nan nan nan nan nan nan nan nan nan nan 279 278 279 278 280 292 302 309 315 313 313 310 nan nan nan nan nan nan nan nan nan nan nan nan nan nan nan nan nan nan nan nan nan nan nan nan nan nan nan nan nan nan nan nan nan nan nan nan nan nan nan nan nan nan nan nan nan nan nan
nan nan nan nan nan nan nan nan nan nan nan nan nan nan nan nan nan nan nan nan nan nan nan nan nan nan nan nan nan nan nan nan nan nan nan nan nan nan 280 283 279 279 287 298 303 302 304 304 301 300 nan 290 296 302 310 307 nan nan nan nan nan nan nan nan nan nan nan nan nan nan nan nan nan nan nan nan nan nan nan nan nan nan nan nan nan nan nan nan nan nan nan nan nan nan nan nan nan